This demonstration page uses our WeatherBlox Daily Observations layout. Learn more.

Left ArrowRight Arrow

Hourly Observations for July 3, 2021

Temp ( °F °C ) Dew Point ( °F °C ) Humidity (%) Winds ( mph kmh ) Pressure ( in mb ) Visibility ( mi km ) Precip ( " mm )
12:53 am 00:53 Mostly Cloudy 76 24.4 65 18.3 69 69 NE 8 13 29.93 1014 10 16 0.00 0.00
1:53 am 01:53 Clear 75 23.9 66 18.9 74 74 NNE 9 15 29.91 1013 10 16 0.00 0.00
2:53 am 02:53 Clear 74 23.3 65 18.3 74 74 NNE 7 11 29.88 1012 10 16 0.00 0.00
3:53 am 03:53 Partly Cloudy 74 23.3 68 20 82 82 NNE 12 19 29.89 1012 10 16 0.00 0.00
4:53 am 04:53 Clear 73 22.8 67 19.4 81 81 NE 12 19 29.89 1012 10 16 0.00 0.00
5:53 am 05:53 Clear 73 22.8 68 20 84 84 NE 8 13 29.90 1013 10 16 0.00 0.00
6:53 am 06:53 Mostly Sunny 73 22.8 68 20 84 84 NE 8 13 29.91 1013 10 16 0.00 0.00
7:53 am 07:53 Partly Cloudy 73 22.8 67 19.4 81 81 NE 7 11 29.93 1014 10 16 0.00 0.00
8:53 am 08:53 Mostly Cloudy 74 23.3 67 19.4 79 79 ENE 5 7 29.96 1015 10 16 0.00 0.00
9:53 am 09:53 Mostly Cloudy 74 23.3 68 20 82 82 E 7 11 29.98 1015 10 16 0.00 0.00
10:53 am 10:53 Mostly Sunny 77 25 68 20 74 74 SE 9 15 29.96 1014 10 16 0.00 0.00
11:53 am 11:53 Partly Cloudy 80 26.7 68 20 67 67 SE 13 20 29.95 1014 10 16 0.00 0.00
12:19 pm 12:19 Mostly Cloudy 80 26.7 68 20 67 67 S 8 13 29.90 1013 10 16 0.00 0.00
12:29 pm 12:29 Partly Cloudy 81 27.2 68 20 65 65 S 6 9 29.89 1012 10 16 0.00 0.00
12:53 pm 12:53 Mostly Cloudy 81 27.2 68 20 65 65 VRB 3 6 29.93 1014 10 16 0.00 0.00
1:20 pm 13:20 Cloudy 84 28.9 68 20 59 59 N 5 7 29.86 1011 10 16 0.00 0.00
1:53 pm 13:53 Mostly Cloudy 84 28.9 68 20 59 59 E 7 11 29.91 1013 10 16 0.00 0.00
2:53 pm 14:53 Mostly Sunny 86 30 67 19.4 53 53 Calm 29.88 1012 10 16 0.00 0.00
3:53 pm 15:53 Partly Cloudy 89 31.7 67 19.4 48 48 VRB 3 6 29.85 1011 10 16 0.00 0.00
4:53 pm 16:53 Cloudy 87 30.6 70 21.1 57 57 NE 16 26 29.84 1010 10 16 0.00 0.00
5:08 pm 17:08 Mostly Cloudy with Thunderstorms 89 31.7 69 20.6 52 52 NE 14 22 29.76 1008 10 16 0.00 0.00
5:23 pm 17:23 Mostly Cloudy 87 30.6 68 20 53 53 E 14 22 29.77 1008 10 16 0.00 0.00
5:53 pm 17:53 Partly Cloudy 89 31.7 67 19.4 48 48 E 10 17 29.83 1010 10 16 0.00 0.00
6:27 pm 18:27 Sunny with Nearby Thunderstorms 88 31.1 66 18.9 48 48 ESE 9 15 29.74 1007 10 16 0.00 0.00
6:53 pm 18:53 Partly Cloudy with Nearby Thunderstorms 89 31.7 66 18.9 47 47 E 8 13 29.83 1010 10 16 0.00 0.00
7:12 pm 19:12 Partly Cloudy 89 31.7 67 19.4 48 48 ENE 9 15 29.76 1008 10 16 0.00 0.00
7:53 pm 19:53 Mostly Sunny 87 30.6 66 18.9 50 50 ENE 9 15 29.84 1010 10 16 0.00 0.00
8:53 pm 20:53 Cloudy 84 28.9 68 20 59 59 SE 15 24 29.85 1011 10 16 0.00 0.00
9:53 pm 21:53 Clear 82 27.8 67 19.4 60 60 SE 13 20 29.87 1012 10 16 0.00 0.00
10:53 pm 22:53 Mostly Clear 80 26.7 67 19.4 64 64 SSE 9 15 29.88 1012 10 16 0.00 0.00
11:53 pm 23:53 Clear 78 25.6 66 18.9 67 67 S 5 7 29.88 1012 10 16 0.00 0.00

Powered by AerisWeather